GW4824 Weather Reports


time (UTC)temp
F
wind
direction
speed
knots
gust
knots
rain 1hr
in
rain 24hr
in
rain mn
in
humidity
%
barometer
mb
20260502194824 43 112 0.0 0.0 0.00 0.03 0.03 77 1016.3
20260502194321 43 23 1.7 1.7 0.00 0.03 0.03 79 1016.5
20260502193816 44 81 0.0 0.0 0.00 0.03 0.03 76 1016.4
20260502193314 44 91 0.0 0.0 0.00 0.03 0.03 67 1016.6
20260502192814 44 38 0.9 1.7 0.00 0.03 0.03 65 1016.4
20260502192312 44 103 0.9 0.9 0.00 0.03 0.03 69 1016.3
20260502191809 44 76 0.0 0.0 0.00 0.03 0.03 71 1016.3
20260502191307 44 117 0.0 0.0 0.00 0.03 0.03 68 1016.5
20260502190804 44 120 0.0 0.0 0.00 0.03 0.03 74 1016.3
20260502190301 44 147 1.7 3.5 0.00 0.03 0.03 71 1016.4
20260502185756 44 91 1.7 2.6 0.00 0.03 0.03 67 1016.6
20260502185253 44 103 0.0 0.9 0.00 0.03 0.03 73 1016.6
20260502184749 44 82 0.0 0.9 0.00 0.03 0.03 74 1016.5
20260502184245 43 97 0.0 0.0 0.00 0.03 0.03 75 1016.4
20260502183742 43 38 0.9 0.9 0.00 0.03 0.03 75 1016.7
20260502183238 43 93 0.0 0.9 0.00 0.03 0.03 76 1016.6
20260502182733 43 100 0.0 0.0 0.00 0.03 0.03 76 1016.6
20260502182229 42 143 0.9 0.9 0.00 0.03 0.03 78 1016.7
20260502181726 42 90 0.0 0.0 0.00 0.03 0.03 79 1016.6
20260502181225 42 149 0.9 0.9 0.00 0.03 0.03 83 1016.6
20260502180722 41 90 0.0 0.0 0.00 0.03 0.03 86 1016.6
20260502180220 41 112 0.0 0.0 0.00 0.03 0.03 87 1016.6
20260502170144 43 6 3.5 5.2 0.00 0.03 0.03 74 1016.5
20260502164130 43 104 0.0 0.0 0.00 0.03 0.03 74 1016.7
20260502163626 43 89 0.0 0.0 0.00 0.03 0.03 78 1016.6
20260502163123 43 67 0.9 0.9 0.00 0.03 0.03 76 1016.7
20260502162620 42 73 0.9 0.9 0.00 0.03 0.03 77 1016.7
20260502162117 43 88 0.0 0.0 0.00 0.03 0.03 77 1016.7
20260502161614 43 76 0.0 0.0 0.00 0.03 0.03 76 1016.7
20260502161111 43 136 0.0 0.0 0.00 0.03 0.03 78 1016.7
20260502160609 44 111 0.0 0.9 0.00 0.03 0.03 77 1016.7
20260502160108 44 108 0.9 1.7 0.00 0.03 0.03 75 1016.7
20260502152022 42 92 0.0 0.0 0.00 0.03 0.03 83 1016.4
20260502151518 42 33 0.9 1.7 0.00 0.03 0.03 81 1016.7
20260502151016 42 108 0.0 0.0 0.00 0.03 0.03 81 1016.6
20260502150513 42 16 0.9 2.6 0.00 0.03 0.03 80 1016.6
20260502130358 41 136 0.9 0.9 0.00 0.03 0.03 85 1016.0
20260502123341 37 143 0.0 0.9 0.00 0.03 0.03 90 1015.7
20260502122838 36 72 0.9 0.9 0.00 0.03 0.03 90 1015.5
20260502122333 36 151 0.0 0.9 0.00 0.03 0.03 91 1015.7
20260502121833 35 111 0.0 0.9 0.00 0.03 0.03 94 1015.8
20260502121329 35 109 0.0 0.0 0.00 0.03 0.03 95 1015.7
20260502120826 34 83 0.0 0.0 0.00 0.03 0.03 97 1015.8
20260502120322 34 90 0.0 0.0 0.00 0.03 0.03 99 1015.8
20260502115820 34 96 0.0 0.0 0.00 0.03 0.03 99 1015.9
20260502115317 33 123 0.0 0.0 0.00 0.03 0.03 99 1015.8
20260502114814 33 164 0.0 0.9 0.00 0.03 0.03 99 1015.8
20260502114310 33 94 0.0 0.0 0.00 0.03 0.03 99 1015.9
20260502113808 33 99 0.0 0.0 0.00 0.03 0.03 99 1015.7
20260502113305 33 101 0.0 0.0 0.00 0.03 0.03 99 1015.7
20260502112803 32 111 0.0 0.0 0.00 0.03 0.03 99 1015.7
20260502112300 32 97 0.0 0.0 0.00 0.03 0.03 99 1015.8
20260502111757 32 97 0.0 0.0 0.00 0.03 0.03 99 1015.4
20260502111255 32 97 0.0 0.0 0.00 0.03 0.03 99 1015.7
20260502110752 32 98 0.0 0.0 0.00 0.03 0.03 99 1015.7
20260502110250 32 98 0.0 0.0 0.00 0.03 0.03 99 1015.5
20260502105748 31 98 0.0 0.0 0.00 0.03 0.03 99 1015.4
20260502105244 31 101 0.0 0.0 0.00 0.03 0.03 99 1015.4
20260502104742 31 106 0.0 0.0 0.00 0.03 0.03 99 1015.4
20260502104239 31 101 0.0 0.0 0.00 0.03 0.03 99 1015.3
20260502103737 31 99 0.0 0.0 0.00 0.03 0.03 99 1015.1
20260502103234 31 97 0.0 0.0 0.00 0.03 0.03 99 1015.3
20260502102730 32 97 0.0 0.0 0.00 0.03 0.03 99 1015.3
20260502102227 32 108 0.0 0.0 0.00 0.03 0.03 99 1015.1
20260502101725 32 117 0.0 0.0 0.00 0.03 0.03 99 1015.4
20260502101223 32 104 0.0 0.0 0.00 0.03 0.03 99 1015.3
20260502100721 32 100 0.0 0.0 0.00 0.03 0.03 99 1015.3
20260502100219 32 100 0.0 0.0 0.00 0.03 0.03 99 1015.3
20260502091153 33 105 0.0 0.0 0.00 0.03 0.03 99 1015.3
20260502090651 33 105 0.0 0.0 0.00 0.03 0.03 99 1015.1
20260502090147 33 108 0.0 0.0 0.00 0.03 0.03 99 1015.1
20260502071049 36 120 0.0 0.0 0.00 0.03 0.03 99 1015.3
20260502070547 36 110 0.0 0.9 0.00 0.03 0.03 99 1015.2
20260502070045 36 117 0.0 0.0 0.00 0.03 0.03 99 1015.0
20260502065543 36 118 0.0 0.0 0.00 0.03 0.03 99 1014.9
20260502065040 37 118 0.0 0.0 0.00 0.03 0.03 99 1015.3
20260502064539 37 118 0.0 0.0 0.00 0.03 0.03 99 1015.4
20260502064035 37 112 0.0 0.0 0.00 0.03 0.03 99 1015.3
20260502063533 37 124 0.0 0.0 0.00 0.03 0.03 99 1015.4
20260502063031 37 120 0.0 0.0 0.00 0.03 0.03 99 1015.2
20260502062527 37 115 0.0 0.0 0.00 0.03 0.03 99 1015.7
20260502062026 37 118 0.0 0.0 0.00 0.03 0.03 99 1015.4
20260502061524 37 124 0.0 0.0 0.00 0.03 0.03 99 1015.4
20260502061020 37 117 0.0 0.0 0.00 0.03 0.03 99 1015.3
20260502060515 37 117 0.0 0.0 0.00 0.03 0.03 99 1015.5
20260502060013 37 117 0.0 0.0 0.00 0.03 0.03 99 1015.7
20260502055510 37 119 0.0 0.0 0.00 0.03 0.03 99 1015.7
20260502055009 37 118 0.0 0.0 0.00 0.03 0.03 99 1015.7
20260502054507 37 117 0.0 0.0 0.00 0.03 0.03 99 1015.8
20260502054004 37 116 0.0 0.0 0.00 0.03 0.03 99 1015.7
20260502053501 38 116 0.0 0.0 0.07 0.03 0.03 99 1015.7
20260502052959 38 137 0.0 0.9 0.07 0.03 0.03 99 1015.7
20260502052457 38 117 0.0 0.0 0.00 0.02 0.02 99 1015.8
20260502051955 38 113 0.0 0.0 0.00 0.02 0.02 98 1015.7
20260502051452 38 113 0.0 0.0 0.00 0.02 0.02 98 1015.7
20260502050949 39 123 0.0 0.0 0.00 0.02 0.02 98 1015.7
20260502050446 39 110 0.0 0.0 0.00 0.02 0.02 98 1015.5
20260502045943 39 110 0.0 0.0 0.00 0.02 0.02 98 1015.8
20260502045440 39 110 0.0 0.0 0.00 0.02 0.02 98 1015.7
20260502044937 39 110 0.0 0.0 0.00 0.02 0.02 98 1015.7
20260502044432 40 110 0.0 0.0 0.00 0.02 0.02 98 1015.7
20260502043929 40 120 0.0 0.0 0.05 0.02 0.02 98 1015.8
20260502043427 39 110 0.0 0.0 0.12 0.02 0.02 98 1015.7
20260502042926 39 103 0.0 0.0 0.07 0.01 0.01 98 1016.1
20260502042424 39 117 0.0 0.0 0.00 0.00 0.00 98 1016.1
20260502041921 39 119 0.0 0.0 0.00 0.00 0.00 98 1015.8
20260502041419 39 103 0.0 0.0 0.00 0.00 0.00 97 1015.7
20260502040916 38 103 0.0 0.0 0.00 0.00 0.00 96 1015.5
20260502040412 39 103 0.0 0.0 0.00 0.00 0.00 96 1015.5
20260502035908 39 103 0.0 0.0 0.00 0.17 0.17 96 1015.8
20260502035405 39 103 0.0 0.0 0.00 0.17 0.17 96 1015.9
20260502034903 39 103 0.0 0.0 0.00 0.17 0.17 96 1015.5
20260502034401 39 103 0.0 0.0 0.00 0.17 0.17 95 1015.9
20260502033859 40 103 0.0 0.0 0.00 0.17 0.17 95 1015.7
20260502033356 40 103 0.0 0.0 0.00 0.17 0.17 95 1016.1
20260502032853 41 103 0.0 0.0 0.00 0.17 0.17 94 1016.0
20260502032349 41 104 0.0 0.0 0.00 0.17 0.17 94 1016.0
20260502031847 41 104 0.0 0.0 0.00 0.17 0.17 93 1016.2
20260502031345 41 104 0.0 0.0 0.00 0.17 0.17 93 1015.7
20260502030843 41 104 0.0 0.0 0.00 0.17 0.17 93 1016.0
20260502030341 41 104 0.0 0.0 0.00 0.17 0.17 92 1016.0
20260502025838 42 104 0.0 0.0 0.00 0.17 0.17 93 1015.9
20260502025335 42 104 0.0 0.0 0.00 0.17 0.17 92 1016.0
20260502024833 42 102 0.0 0.0 0.00 0.17 0.17 92 1015.8
20260502024331 42 56 0.9 0.9 0.00 0.17 0.17 92 1016.0
20260502023829 41 103 0.0 0.0 0.00 0.17 0.17 91 1015.8
20260502023326 41 103 0.0 0.0 0.00 0.17 0.17 92 1015.7
20260502022824 41 103 0.0 0.0 0.00 0.17 0.17 93 1015.7
20260502022320 41 103 0.0 0.0 0.00 0.17 0.17 93 1015.5
20260502021817 41 103 0.0 0.0 0.00 0.17 0.17 93 1015.5
20260502021314 41 103 0.0 0.0 0.00 0.17 0.17 93 1015.7
20260502020811 41 103 0.0 0.0 0.00 0.17 0.17 92 1015.7
20260502020309 41 103 0.0 0.0 0.00 0.17 0.17 92 1015.4
20260502015806 41 103 0.0 0.0 0.00 0.17 0.17 92 1015.4
20260502015305 41 103 0.0 0.0 0.00 0.17 0.17 93 1015.4
20260502014800 42 103 0.0 0.0 0.00 0.17 0.17 93 1015.5
20260502014257 41 103 0.0 0.0 0.00 0.17 0.17 92 1015.4
20260502013753 42 103 0.0 0.0 0.00 0.17 0.17 92 1015.2
20260502013248 42 103 0.0 0.0 0.00 0.17 0.17 90 1015.2
20260502012745 42 103 0.0 0.0 0.00 0.17 0.17 88 1015.1
20260502012243 42 103 0.0 0.0 0.00 0.17 0.17 87 1015.2
20260502011740 42 103 0.0 0.0 0.00 0.17 0.17 87 1014.7
20260502011236 42 103 0.0 0.0 0.00 0.17 0.17 86 1014.7
20260502010734 42 103 0.0 0.0 0.00 0.17 0.17 88 1014.6
20260502010229 42 103 0.0 0.0 0.00 0.17 0.17 88 1014.7
20260502005727 42 103 0.0 0.0 0.00 0.17 0.17 89 1014.9
20260502005225 42 103 0.0 0.0 0.00 0.17 0.17 89 1014.9
20260502004721 43 103 0.0 0.0 0.00 0.17 0.17 88 1014.9
20260502004218 42 103 0.0 0.0 0.00 0.17 0.17 88 1015.0
20260502003716 42 103 0.0 0.0 0.00 0.17 0.17 88 1014.9
20260502003213 43 102 0.0 0.0 0.00 0.17 0.17 88 1015.1
20260502002708 43 102 0.0 0.0 0.00 0.17 0.17 89 1014.9
20260502002207 43 102 0.0 0.0 0.00 0.17 0.17 87 1014.7
20260502001703 43 102 0.0 0.0 0.00 0.17 0.17 87 1014.7
20260502001201 43 106 0.0 0.0 0.00 0.17 0.17 84 1014.3
20260502000658 43 100 0.0 0.0 0.00 0.17 0.17 87 1014.6
20260502000156 43 100 0.0 0.0 0.00 0.17 0.17 86 1014.4
20260501235652 43 123 0.0 0.0 0.00 0.17 0.17 87 1014.1
20260501235148 43 89 0.0 0.0 0.00 0.17 0.17 87 1014.1
20260501234644 43 88 0.0 0.0 0.00 0.17 0.17 86 1014.2
20260501234141 43 88 0.0 0.0 0.00 0.17 0.17 86 1013.9
20260501233639 43 88 0.0 0.0 0.00 0.17 0.17 86 1013.9
20260501233136 43 88 0.0 0.0 0.00 0.17 0.17 87 1014.1
20260501232632 43 93 0.0 0.0 0.00 0.17 0.17 85 1013.9
20260501232130 44 93 0.0 0.0 0.00 0.17 0.17 86 1013.8
20260501231627 44 83 0.0 0.0 0.00 0.17 0.17 84 1013.8
20260501231125 44 111 0.0 0.0 0.00 0.17 0.17 84 1013.6
20260501230623 44 89 0.0 0.0 0.00 0.17 0.17 82 1013.7
20260501230121 45 85 0.0 0.0 0.00 0.17 0.17 84 1013.9
20260501225619 46 105 0.0 0.0 0.00 0.17 0.17 84 1013.8
20260501225114 45 98 0.0 0.9 0.00 0.17 0.17 86 1013.9
20260501224612 44 127 0.9 0.9 0.00 0.17 0.17 84 1013.9
20260501224109 45 92 0.0 0.0 0.00 0.17 0.17 86 1013.9
20260501223605 45 117 0.0 0.0 0.00 0.17 0.17 85 1014.1
20260501223102 45 109 0.0 0.0 0.00 0.17 0.17 86 1014.0
20260501222558 45 89 0.0 0.9 0.00 0.17 0.17 86 1013.9
20260501222055 45 105 0.0 0.0 0.00 0.17 0.17 86 1014.0
20260501221552 45 98 0.0 0.0 0.00 0.17 0.17 86 1014.0
20260501221049 45 72 0.0 0.0 0.00 0.17 0.17 83 1014.0
20260501220547 45 94 0.0 0.0 0.00 0.17 0.17 85 1014.0
20260501220043 44 106 0.0 0.0 0.00 0.17 0.17 85 1013.7
20260501215540 45 111 0.0 0.0 0.00 0.17 0.17 83 1013.8
20260501215035 45 81 0.0 0.0 0.00 0.17 0.17 84 1013.7
20260501214531 45 91 0.0 0.0 0.00 0.17 0.17 85 1013.6
20260501214027 45 89 0.0 0.0 0.00 0.17 0.17 86 1013.4
20260501213524 44 110 1.7 1.7 0.00 0.17 0.17 86 1013.3
20260501213020 44 56 0.9 0.9 0.00 0.17 0.17 91 1013.3
20260501212516 44 109 0.0 0.0 0.00 0.17 0.17 90 1013.2
20260501212014 44 75 0.0 0.9 0.00 0.17 0.17 89 1013.2
20260501211510 44 111 0.0 0.9 0.00 0.17 0.17 90 1013.1
20260501211008 44 22 0.9 0.9 0.00 0.17 0.17 89 1013.3
20260501210504 44 81 0.9 0.9 0.00 0.17 0.17 89 1013.0
20260501210001 45 94 0.0 0.0 0.00 0.17 0.17 89 1012.9
20260501205457 45 78 0.0 0.9 0.00 0.17 0.17 90 1012.9
20260501204955 44 102 0.0 0.0 0.00 0.17 0.17 91 1013.0
20260501204451 44 160 0.9 1.7 0.00 0.17 0.17 91 1012.8
20260501203947 44 94 0.0 0.0 0.00 0.17 0.17 89 1012.8
20260501203444 44 353 1.7 1.7 0.00 0.17 0.17 88 1012.8
20260501202942 44 104 0.9 2.6 0.00 0.17 0.17 91 1012.8
20260501202438 44 118 0.0 0.0 0.00 0.17 0.17 91 1012.9
20260501201935 44 97 0.0 0.9 0.00 0.17 0.17 90 1012.6
20260501201432 44 174 1.7 1.7 0.00 0.17 0.17 92 1012.5
20260501200929 44 91 0.0 0.0 0.00 0.17 0.17 93 1012.5
20260501200426 44 100 0.9 0.9 0.00 0.17 0.17 93 1012.5
20260501195923 44 93 0.9 0.9 0.00 0.17 0.17 93 1012.4
20260501195420 44 32 0.9 0.9 0.00 0.17 0.17 93 1012.4